TimeCDT,TemperatureF,Dew PointF,Humidity,Sea Level PressureIn,VisibilityMPH,Wind Direction,Wind SpeedMPH,Gust SpeedMPH,PrecipitationIn,Events,Conditions,WindDirDegrees,DateUTC
12:22 AM,28.4,28.4,100,30.10,2.0,Calm,Calm,-,0.01,Snow,Light Snow,0,2012-11-03 05:22:00
12:31 AM,28.4,28.4,100,30.10,1.5,Calm,Calm,-,0.01,Snow,Light Snow,0,2012-11-03 05:31:00
12:43 AM,28.4,28.4,100,30.10,1.5,Calm,Calm,-,0.01,Snow,Light Snow,0,2012-11-03 05:43:00
12:50 AM,28.4,28.4,100,30.10,2.0,Calm,Calm,-,0.01,Snow,Light Snow,0,2012-11-03 05:50:00
12:54 AM,28.9,27.0,92,30.18,2.0,Calm,Calm,-,0.01,Snow,Light Snow,0,2012-11-03 05:54:00
1:46 AM,28.4,26.6,93,30.11,3.0,Calm,Calm,-,0.00,Snow,Light Snow,0,2012-11-03 06:46:00
1:54 AM,28.0,27.0,96,30.18,3.0,Calm,Calm,-,0.00,Snow,Light Snow,0,2012-11-03 06:54:00
2:18 AM,28.4,26.6,93,30.10,2.0,Calm,Calm,-,0.00,Snow,Light Snow,0,2012-11-03 07:18:00
2:54 AM,28.0,26.1,92,30.18,2.5,Calm,Calm,-,0.00,Snow,Light Snow,0,2012-11-03 07:54:00
3:37 AM,26.6,26.6,100,30.11,3.0,NNW,4.6,-,0.00,Snow,Light Snow,340,2012-11-03 08:37:00
3:54 AM,27.0,25.0,92,30.18,5.0,NNW,4.6,-,0.01,Snow,Light Snow,340,2012-11-03 08:54:00
4:54 AM,27.0,25.0,92,30.19,3.0,NNW,5.8,-,0.00,Snow,Light Snow,330,2012-11-03 09:54:00
5:38 AM,26.6,24.8,93,30.13,5.0,NNW,5.8,-,0.00,Snow,Light Snow,330,2012-11-03 10:38:00
5:47 AM,26.6,24.8,93,30.13,5.0,NNW,6.9,-,0.00,Snow,Light Snow,330,2012-11-03 10:47:00
5:54 AM,26.1,24.1,92,30.21,5.0,NW,6.9,-,0.00,Snow,Light Snow,320,2012-11-03 10:54:00
6:54 AM,26.1,24.1,92,30.22,4.0,NW,5.8,-,0.00,Snow,Light Snow,320,2012-11-03 11:54:00
7:54 AM,26.1,24.1,92,30.24,8.0,NW,6.9,-,0.00,,Overcast,320,2012-11-03 12:54:00
8:47 AM,26.6,24.8,93,30.17,8.0,NNW,5.8,-,N/A,,Overcast,330,2012-11-03 13:47:00
8:54 AM,26.1,25.0,96,30.25,8.0,NNW,5.8,-,N/A,,Overcast,330,2012-11-03 13:54:00
9:54 AM,26.1,25.0,96,30.27,6.0,NW,6.9,-,N/A,,Overcast,310,2012-11-03 14:54:00
10:25 AM,26.6,24.8,93,30.20,5.0,NNW,8.1,-,N/A,,Overcast,330,2012-11-03 15:25:00
10:54 AM,26.1,25.0,96,30.28,5.0,NW,6.9,-,N/A,,Overcast,310,2012-11-03 15:54:00
11:54 AM,26.1,24.1,92,30.29,8.0,NNW,8.1,-,N/A,,Overcast,330,2012-11-03 16:54:00
12:54 PM,27.0,25.0,92,30.29,8.0,NW,6.9,-,N/A,,Overcast,310,2012-11-03 17:54:00
1:38 PM,26.6,24.8,93,30.21,10.0,NW,4.6,-,N/A,,Overcast,310,2012-11-03 18:38:00
1:54 PM,27.0,24.1,89,30.29,10.0,NW,5.8,-,N/A,,Overcast,320,2012-11-03 18:54:00
2:19 PM,28.4,24.8,86,30.21,10.0,NNW,5.8,-,N/A,,Overcast,330,2012-11-03 19:19:00
2:54 PM,28.0,26.1,92,30.29,9.0,NW,4.6,-,N/A,,Overcast,320,2012-11-03 19:54:00
3:54 PM,28.9,26.1,89,30.29,9.0,NNW,4.6,-,N/A,,Overcast,330,2012-11-03 20:54:00
4:54 PM,28.9,26.1,89,30.29,10.0,NNE,4.6,-,N/A,,Overcast,20,2012-11-03 21:54:00
5:26 PM,28.4,24.8,86,30.21,10.0,Calm,Calm,-,N/A,,Overcast,0,2012-11-03 22:26:00
5:54 PM,28.9,25.0,85,30.29,9.0,North,3.5,-,N/A,,Overcast,350,2012-11-03 22:54:00
6:34 PM,28.4,26.6,93,30.21,9.0,Calm,Calm,-,N/A,,Overcast,0,2012-11-03 23:34:00
6:54 PM,28.0,26.1,92,30.30,9.0,Calm,Calm,-,N/A,,Overcast,0,2012-11-03 23:54:00
7:40 PM,28.4,26.6,93,30.23,9.0,Calm,Calm,-,N/A,,Overcast,0,2012-11-04 00:40:00
7:54 PM,28.0,26.1,92,30.31,9.0,Calm,Calm,-,N/A,,Overcast,0,2012-11-04 00:54:00
8:54 PM,28.9,24.1,82,30.30,10.0,Calm,Calm,-,N/A,,Overcast,0,2012-11-04 01:54:00
9:54 PM,28.0,25.0,88,30.29,10.0,SSE,3.5,-,N/A,,Overcast,160,2012-11-04 02:54:00
10:54 PM,28.0,24.1,85,30.29,10.0,SE,4.6,-,N/A,,Overcast,140,2012-11-04 03:54:00
11:54 PM,28.0,24.1,85,30.28,10.0,SE,6.9,-,N/A,,Overcast,130,2012-11-04 04:54:00